Aérodrome :
LOGIN :

S'inscrire | Disclaimer

   EN    FR    IT 

 










Légende :    VFR   VFR Marginal   IFR   IFR Intensif   IFR Très Intensif
Visi : 
Plafond : 
>= 8 km
>= 3000ft
5 à 8 km
1000 à 3000 ft
1500m à 5 km
500 à 1000 ft
800 à 1500m
200 à 500 ft
< 800m
< 200 ft
Symboles :   Orages  Brouillard  Fortes neiges  Fortes précipitations  Vent > 20 kt
SIGMETs :   Divers  Orages  Givrage  Turbulence  Onde Orograph.  Cendres Volcan.






- Altitude de l'aérodrome : 39 ft


ETNH - Hohn AB

DERNIER METAR :
  • 030120Z 09001KT 9999 BKN190 12/10 Q1009 BLU

METARs EXPIRÉS :
  • 030020Z 09002KT 9999 BKN180 12/10 Q1009 BLU
  • 022320Z 06002KT 9999 BKN200 12/10 Q1010 BLU+

TAF TAF ETNH
Valide du 02 à 23h jusqu'au 03 à 11h UTC


022215Z 0223/0311 08004KT 9999 NSW SCT180 BKN240
PROB30 0302/0311 10008KT 5000 -SHRA BKN060 BY ETGL



MET'MAP, la Météo Aéronautique d'un coup d'oeil ! - Copyright ORBIFLY Décembre 2007 - Disclaimer

ORBIFLY MET'MAP TEAM :

Programmation & Développement : Alexandra Zaïnal
Sur une idée originale de : Baudouin d'Aumeries
Assistance à la programmation : Marc-Olivier Méhu
Soutien technique & logistique : Manuel Goepfert

Contact : metmap@orbifly.com




SOURCES & CREDITS :

   NOAA